Flag for Austria Weather past 2 weeks in Hollabrunn, Lower Austria, Austria

Now
59 °F

Cool.


Feels Like: 59 °F
Forecast: 51 / 70 °F
Wind: 2 mph from Northeast

Location: Retz

Current Time: Sep 17, 2014 at 12:40:27 AM

Latest Report: Sep 17, 2014 at 12:00 AM


Visibility: N/A

Pressure: 30.08 "Hg

Humidity: 87%

Dew point: 55 °F

Location of HollabrunnLocation

Historic Weather in Hollabrunn — Graph

°F

Hollabrunn temperature yesterday

Maximum temperature yesterday: 69 °F (at 3:00 PM)
Minimum temperature yesterday: 58 °F (at 6:00 AM)
Average temperature yesterday: 62 °F

Past Weeks' High & Low Weather Summary

 TemperatureHumidityPressure
High76 °F (Sep 4, 4:00 PM)99% (Sep 14, 9:00 AM)30.09 "Hg (Sep 14, 9:00 AM)
Low54 °F (Sep 2, 3:00 AM)52% (Sep 8, 4:00 PM)29.77 "Hg (Sep 12, 6:00 AM)
Average63 °F82%29.99 "Hg
* Reported Sep 1 11:00 PM — Sep 16 11:00 PM, Hollabrunn, Weather by CustomWeather, © 2014

Note: Actual official high and low records may vary slightly from our data, if they occured in-between our weather recording intervals... More about our weather records

Advertising

Hollabrunn weather history for previous 24 hours

 ConditionsComfort  
Time TempWeatherWind HumidityBarometerVisibility
11:00 PM
Sep 16
59 °FCool.2 mph85%30.08 "HgN/A
10:00 PM60 °FCool.2 mph83%30.08 "HgN/A
9:00 PM61 °FCool.2 mph83%30.08 "HgN/A
8:00 PM62 °FPassing clouds.3 mph79%30.06 "Hg11 mi
7:00 PM64 °FMild.2 mph72%30.05 "HgN/A
6:00 PM66 °FMild.3 mph70%30.04 "HgN/A
5:00 PM67 °FMild.5 mph70%30.04 "HgN/A
4:00 PM69 °FMild.5 mph64%30.04 "HgN/A
3:00 PM69 °FMild.3 mph65%30.05 "HgN/A
2:00 PM68 °FScattered clouds.3 mph69%30.06 "Hg11 mi
1:00 PM67 °FMild.2 mph71%30.07 "HgN/A
12:00 PM66 °FMild.2 mph77%30.07 "HgN/A
11:00 AM64 °FMild.2 mph80%30.07 "HgN/A
10:00 AM61 °FCool.2 mph85%30.08 "HgN/A
9:00 AM60 °FCool.3 mph87%30.07 "HgN/A
8:00 AM58 °FOvercast.3 mph89%30.07 "Hg6 mi
7:00 AM58 °FOvercast.3 mph89%30.06 "Hg6 mi
6:00 AM58 °FCool.3 mph91%30.05 "HgN/A
5:00 AM58 °FCool.2 mph90%30.05 "HgN/A
4:00 AM58 °FCool.3 mph90%30.06 "HgN/A
3:00 AM58 °FCool.3 mph89%30.06 "HgN/A
2:00 AM59 °FCool.5 mph86%30.05 "HgN/A
1:00 AM60 °FCool.3 mph87%30.05 "HgN/A
12:00 AM60 °FCool.5 mph91%30.06 "HgN/A
Weather by CustomWeather, © 2014

See weather overviewHow to use our weather pages